(550) Senta
ephemeris date magn radius delta ra dec elong phase
Today9 May 202514.22.370 AU3.357 AU02h22m+20°17'10.1°4.3°
Opposition17 Dec 202513.12.873 AU1.889 AU05h44m+24°37'178.4°0.6°
(550) Senta - 2025-05-09
astro.vanbuitenen.nl


 
-1 year
-1 month
-1 day
Now
+1 day
+1 month
+1 year

The interactive orbit chart above shows the body's path through the solar system and its position at the given date. Green and blue lines are shown perpendicular to the ecliptic plane: Green if the path is above the ecliptic plane, blue if it is below. (Left-click and drag to rotate the view; Right-click and drag to move the view; Use scroll wheel to zoom in our out.)

The orbital elements of Senta are:

            e (Eccentricity)                : 0.2220661
            a (Semimajor axis)              : 2.5885514
            i (Inclination)                 : 10.10687
            Ω (Longitude of ascending node) : 270.65941
            ω (Argument of perihelion)      : 45.21240
            M (Mean anomaly)                : 54.95804
            Epoch                           : 2025 May 05

            L (Longitude of perihelion)     : 315.42378
            B (Latitude of perihelion)      : 7.15452
            P (Orbital period in years)     : 4.16            
        

The light curve chart below shows the estimated development of the minor planet's magnitude.


The all-sky chart below shows the path of the minor planet over the same period as the light curve. The current position is marked yellow.





The following chart shows the path of the minor planet in the next few days. The field of view is optimized for (~10x50) binoculars and finderscopes. A more printer-friendly version of the same chart can be found below.




Ephemerides:
Date       Time       RA (2000)    DEC (2000)    delta   radius  elong  phase   PA    magn
2025-05-09 00:00 UT   02 22 20.9   +20 17 42     3.357    2.370   10.1    4.3   286   14.2 
2025-05-09 15:31 UT   02 23 36.6   +20 23 09     3.358    2.372   10.4    4.4   285   14.2 
2025-05-10 00:00 UT   02 24 18.0   +20 26 07     3.358    2.373   10.5    4.5   284   14.2 
2025-05-11 00:00 UT   02 26 14.9   +20 34 28     3.359    2.375   10.9    4.6   283   14.3 
2025-05-12 00:00 UT   02 28 11.9   +20 42 44     3.359    2.377   11.4    4.8   282   14.3 
2025-05-13 00:00 UT   02 30 08.7   +20 50 56     3.360    2.380   11.8    5.0   280   14.3 
2025-05-14 00:00 UT   02 32 05.5   +20 59 03     3.360    2.382   12.2    5.1   279   14.3 
2025-05-15 00:00 UT   02 34 02.3   +21 07 06     3.361    2.385   12.6    5.3   278   14.3 
2025-05-16 00:00 UT   02 35 59.0   +21 15 04     3.361    2.387   13.0    5.5   277   14.3 
2025-05-17 00:00 UT   02 37 55.6   +21 22 58     3.361    2.389   13.5    5.7   277   14.3 
2025-05-18 00:00 UT   02 39 52.2   +21 30 47     3.361    2.392   13.9    5.8   276   14.3 
2025-05-19 00:00 UT   02 41 48.7   +21 38 31     3.361    2.394   14.4    6.0   275   14.4 
2025-05-20 00:00 UT   02 43 45.1   +21 46 11     3.361    2.397   14.8    6.2   274   14.4 
2025-05-21 00:00 UT   02 45 41.5   +21 53 46     3.361    2.399   15.3    6.4   274   14.4 
2025-05-22 00:00 UT   02 47 37.8   +22 01 16     3.360    2.402   15.7    6.6   273   14.4 
2025-05-23 00:00 UT   02 49 34.0   +22 08 42     3.360    2.404   16.2    6.7   273   14.4 
2025-05-24 00:00 UT   02 51 30.1   +22 16 03     3.359    2.406   16.6    6.9   272   14.4 
2025-05-25 00:00 UT   02 53 26.2   +22 23 19     3.358    2.409   17.1    7.1   272   14.4 
2025-05-26 00:00 UT   02 55 22.1   +22 30 30     3.357    2.411   17.6    7.3   271   14.4 
2025-05-27 00:00 UT   02 57 18.0   +22 37 37     3.357    2.414   18.0    7.5   271   14.4 


    Terminology:
            
    delta:  distance between minor planet and earth in AU
    radius: distance between minor planet and sun in AU
    magn:   magnitude (brightness) estimate    
    ra:     right ascension in hours (24h = 360deg)
    dec:    declination in degrees
    elong:  elongation in degrees (angle sun-earth-minor planet)    
    phase:  phase angle in degrees (angle sun-minor planet-earth)        
    AU:     Astronomical Unit (mean distance between earth and sun: 149597870.7 km
    

Orbital elements provided by the MPC (Minor Planet Center).
Calculations by a modified version of AAPlus, a C# implementation of the AA+ project by PJ Naughter from the algorithms presented in the book "Astronomical Algorithms" by Jean Meeus.
NGC2000 dso catalog and star labels from VizieR as provided by the Strasbourg astronomical Data Center.
Tycho2 catalog from the ESO archive.